Satellite: NOAA-11 Catalog number: 19531 Epoch time: 11054.77299232 Element set: 0413 Inclination: 098.7533 deg RA of node: 144.3782 deg Eccentricity: 0.0011564 Arg of perigee: 148.5153 deg Mean anomaly: 211.6712 deg Mean motion: 14.14904758 rev/day Decay rate: -7.0e-08 rev/day^2 Epoch rev: 15671 Checksum: 292
Satellite: NOAA-12 Catalog number: 21263 Epoch time: 11054.81518755 Element set: 0908 Inclination: 098.7566 deg RA of node: 072.8291 deg Eccentricity: 0.0012967 Arg of perigee: 152.9824 deg Mean anomaly: 207.2031 deg Mean motion: 14.25684308 rev/day Decay rate: -1.27e-06 rev/day^2 Epoch rev: 02825 Checksum: 305
Satellite: MET-3/5 Catalog number: 21655 Epoch time: 11055.54847648 Element set: 46 Inclination: 082.5585 deg RA of node: 130.3631 deg Eccentricity: 0.0014825 Arg of perigee: 079.8753 deg Mean anomaly: 280.4063 deg Mean motion: 13.17028481 rev/day Decay rate: 5.1e-07 rev/day^2 Epoch rev: 93889 Checksum: 316
Satellite: MET-2/21 Catalog number: 22782 Epoch time: 11054.50816689 Element set: 0028 Inclination: 082.5445 deg RA of node: 053.0667 deg Eccentricity: 0.0023906 Arg of perigee: 059.7251 deg Mean anomaly: 300.6266 deg Mean motion: 13.83652420 rev/day Decay rate: -3.0e-07 rev/day^2 Epoch rev: 88283 Checksum: 295
Satellite: OKEAN-4 Catalog number: 23317 Epoch time: 11054.81203176 Element set: 482 Inclination: 082.5400 deg RA of node: 119.0009 deg Eccentricity: 0.0023468 Arg of perigee: 129.9167 deg Mean anomaly: 230.4135 deg Mean motion: 14.82946392 rev/day Decay rate: 3.84e-06 rev/day^2 Epoch rev: 88374 Checksum: 291
Satellite: NOAA-14 Catalog number: 23455 Epoch time: 11054.94503405 Element set: 0392 Inclination: 098.8566 deg RA of node: 138.6891 deg Eccentricity: 0.0008597 Arg of perigee: 239.7546 deg Mean anomaly: 120.2759 deg Mean motion: 14.13807029 rev/day Decay rate: 2.3e-07 rev/day^2 Epoch rev: 83307 Checksum: 320
Satellite: NOAA-15 Catalog number: 25338 Epoch time: 11054.83005891 Element set: 0720 Inclination: 098.6464 deg RA of node: 042.5819 deg Eccentricity: 0.0011568 Arg of perigee: 064.5795 deg Mean anomaly: 295.6558 deg Mean motion: 14.24885515 rev/day Decay rate: 1.01e-06 rev/day^2 Epoch rev: 66458 Checksum: 328
Satellite: RESURS Catalog number: 25394 Epoch time: 11054.64784138 Element set: 0733 Inclination: 098.2994 deg RA of node: 063.9253 deg Eccentricity: 0.0000956 Arg of perigee: 165.7493 deg Mean anomaly: 194.3707 deg Mean motion: 14.24223896 rev/day Decay rate: -1.0e-08 rev/day^2 Epoch rev: 65614 Checksum: 319
Satellite: FENGYUN1 Catalog number: 25730 Epoch time: 11055.44194105 Element set: 265 Inclination: 098.8079 deg RA of node: 019.1616 deg Eccentricity: 0.0022103 Arg of perigee: 270.1006 deg Mean anomaly: 089.7630 deg Mean motion: 14.08505604 rev/day Decay rate: 5.53e-06 rev/day^2 Epoch rev: 60719 Checksum: 271
Satellite: OKEAN-0 Catalog number: 25860 Epoch time: 11055.79564505 Element set: 238 Inclination: 097.8695 deg RA of node: 025.4281 deg Eccentricity: 0.0001488 Arg of perigee: 045.8381 deg Mean anomaly: 314.2940 deg Mean motion: 14.73714577 rev/day Decay rate: 1.91e-06 rev/day^2 Epoch rev: 62410 Checksum: 306
Satellite: NOAA-16 Catalog number: 26536 Epoch time: 11054.89057462 Element set: 0200 Inclination: 099.1526 deg RA of node: 083.0708 deg Eccentricity: 0.0010322 Arg of perigee: 355.1200 deg Mean anomaly: 004.9844 deg Mean motion: 14.12598846 rev/day Decay rate: -2.9e-07 rev/day^2 Epoch rev: 53736 Checksum: 289
Satellite: NOAA-17 Catalog number: 27453 Epoch time: 11054.78958925 Element set: 0196 Inclination: 098.3948 deg RA of node: 099.6288 deg Eccentricity: 0.0012615 Arg of perigee: 119.1959 deg Mean anomaly: 241.0471 deg Mean motion: 14.24239757 rev/day Decay rate: 2.26e-06 rev/day^2 Epoch rev: 45051 Checksum: 340
Satellite: NOAA-18 Catalog number: 28654 Epoch time: 11054.82134215 Element set: 0680 Inclination: 098.9839 deg RA of node: 005.7689 deg Eccentricity: 0.0015192 Arg of perigee: 065.1317 deg Mean anomaly: 295.1427 deg Mean motion: 14.11439647 rev/day Decay rate: 7.6e-07 rev/day^2 Epoch rev: 29693 Checksum: 330
Satellite: NOAA-19 Catalog number: 33591 Epoch time: 11054.93528720 Element set: 0875 Inclination: 098.8169 deg RA of node: 357.0540 deg Eccentricity: 0.0013441 Arg of perigee: 299.4813 deg Mean anomaly: 060.5006 deg Mean motion: 14.11132658 rev/day Decay rate: 6.0e-08 rev/day^2 Epoch rev: 10541 Checksum: 290
/EX SB KEPS @ AMSAT $ORB11055.M Orbital Elements 11055.MISC
HR AMSAT ORBITAL ELEMENTS FOR MANNED AND MISCELLANEOUS SATELLITES FROM WA5QGD FORT WORTH,TX February 24, 2011 Send Subscribe/unsubscribe to KEPS at http://www.amsat.org/mailman/listinfo/keps BID: ORB11055.M TO ALL RADIO AMATEURS BT
Satellite: HUBBLE Catalog number: 20580 Epoch time: 11055.10470320 Element set: 717 Inclination: 028.4713 deg RA of node: 035.0381 deg Eccentricity: 0.0002994 Arg of perigee: 359.4486 deg Mean anomaly: 000.6204 deg Mean motion: 15.01175986 rev/day Decay rate: 9.15e-06 rev/day^2 Epoch rev: 94264 Checksum: 271
Satellite: ISS Catalog number: 25544 Epoch time: 11056.06484444 Element set: 896 Inclination: 051.6462 deg RA of node: 015.9176 deg Eccentricity: 0.0004433 Arg of perigee: 356.1322 deg Mean anomaly: 100.6673 deg Mean motion: 15.72757947 rev/day Decay rate: 1.7128e-04 rev/day^2 Epoch rev: 70325 Checksum: 299
Satellite: CO-58 Catalog number: 28895 Epoch time: 11055.60605558 Element set: 808 Inclination: 097.9830 deg RA of node: 296.2431 deg Eccentricity: 0.0016942 Arg of perigee: 211.4125 deg Mean anomaly: 148.6069 deg Mean motion: 14.60014039 rev/day Decay rate: 3.15e-06 rev/day^2 Epoch rev: 28381 Checksum: 312
Satellite: FALCON Catalog number: 30776 Epoch time: 11055.88732147 Element set: 29 Inclination: 035.4350 deg RA of node: 309.5735 deg Eccentricity: 0.0001217 Arg of perigee: 255.8705 deg Mean anomaly: 104.1869 deg Mean motion: 15.04148204 rev/day Decay rate: 1.453e-05 rev/day^2 Epoch rev: 21812 Checksum: 274
Satellite: MAST Catalog number: 31126 Epoch time: 11055.63639133 Element set: 92 Inclination: 097.9069 deg RA of node: 089.1631 deg Eccentricity: 0.0094645 Arg of perigee: 160.4862 deg Mean anomaly: 199.9970 deg Mean motion: 14.53677189 rev/day Decay rate: 8.6e-07 rev/day^2 Epoch rev: 20473 Checksum: 328
Satellite: CAPE1 Catalog number: 31130 Epoch time: 11055.65455022 Element set: 112 Inclination: 097.9117 deg RA of node: 086.1218 deg Eccentricity: 0.0103080 Arg of perigee: 170.1423 deg Mean anomaly: 190.1769 deg Mean motion: 14.52295048 rev/day Decay rate: 1.46e-06 rev/day^2 Epoch rev: 20430 Checksum: 246
Satellite: COMPASS Catalog number: 32787 Epoch time: 11054.66964655 Element set: 0919 Inclination: 097.8598 deg RA of node: 120.5526 deg Eccentricity: 0.0015503 Arg of perigee: 182.9124 deg Mean anomaly: 177.2042 deg Mean motion: 14.82155050 rev/day Decay rate: 6.91e-06 rev/day^2 Epoch rev: 15274 Checksum: 310
Satellite: AAUSAT2 Catalog number: 32788 Epoch time: 11054.64686416 Element set: 0907 Inclination: 097.8599 deg RA of node: 120.7180 deg Eccentricity: 0.0015016 Arg of perigee: 184.0444 deg Mean anomaly: 176.0636 deg Mean motion: 14.82319863 rev/day Decay rate: 6.50e-06 rev/day^2 Epoch rev: 15275 Checksum: 316
Satellite: DO-64 Catalog number: 32789 Epoch time: 11055.76624639 Element set: 924 Inclination: 097.8685 deg RA of node: 122.6279 deg Eccentricity: 0.0015600 Arg of perigee: 178.2542 deg Mean anomaly: 181.8687 deg Mean motion: 14.82624039 rev/day Decay rate: 1.306e-05 rev/day^2 Epoch rev: 15292 Checksum: 338
Satellite: CO-66 Catalog number: 32791 Epoch time: 11055.67713868 Element set: 908 Inclination: 097.8597 deg RA of node: 121.5138 deg Eccentricity: 0.0015924 Arg of perigee: 178.8254 deg Mean anomaly: 181.3006 deg Mean motion: 14.81894744 rev/day Decay rate: 5.48e-06 rev/day^2 Epoch rev: 15284 Checksum: 347
Satellite: RS-30 Catalog number: 32953 Epoch time: 11055.54337508 Element set: 499 Inclination: 082.4966 deg RA of node: 232.7454 deg Eccentricity: 0.0018093 Arg of perigee: 272.7010 deg Mean anomaly: 087.1997 deg Mean motion: 12.43010627 rev/day Decay rate: 1.0e-07 rev/day^2 Epoch rev: 12509 Checksum: 292
Satellite: TACSAT-3 Catalog number: 35001 Epoch time: 11055.61242861 Element set: 512 Inclination: 040.4542 deg RA of node: 134.4454 deg Eccentricity: 0.0021377 Arg of perigee: 092.4859 deg Mean anomaly: 267.8402 deg Mean motion: 15.45046996 rev/day Decay rate: 9.225e-05 rev/day^2 Epoch rev: 9964 Checksum: 296
Satellite: PHARMSAT Catalog number: 35002 Epoch time: 11055.57086067 Element set: 477 Inclination: 040.4680 deg RA of node: 132.1755 deg Eccentricity: 0.0023513 Arg of perigee: 096.4554 deg Mean anomaly: 263.8943 deg Mean motion: 15.45226919 rev/day Decay rate: 9.086e-05 rev/day^2 Epoch rev: 9966 Checksum: 312
Satellite: HAWKSAT1 Catalog number: 35003 Epoch time: 11055.59645682 Element set: 523 Inclination: 040.4595 deg RA of node: 115.4846 deg Eccentricity: 0.0022844 Arg of perigee: 126.4088 deg Mean anomaly: 233.8839 deg Mean motion: 15.52660707 rev/day Decay rate: 2.4504e-04 rev/day^2 Epoch rev: 9985 Checksum: 312
Satellite: CP6 Catalog number: 35004 Epoch time: 11055.47596947 Element set: 527 Inclination: 040.4605 deg RA of node: 111.8163 deg Eccentricity: 0.0021817 Arg of perigee: 133.1705 deg Mean anomaly: 227.0885 deg Mean motion: 15.55119280 rev/day Decay rate: 3.0080e-04 rev/day^2 Epoch rev: 9987 Checksum: 294
Satellite: AEROCUB3 Catalog number: 35005 Epoch time: 11006.09222617 Element set: 610 Inclination: 040.4461 deg RA of node: 021.7975 deg Eccentricity: 0.0025578 Arg of perigee: 084.1677 deg Mean anomaly: 280.7191 deg Mean motion: 16.39196088 rev/day Decay rate: 1.4049365e-01 rev/day^2 Epoch rev: 9254 Checksum: 305
